Regional Weather Roundup
Issued by NWS

Home | Current Version | Previous Version | Text Only | Print | Product List | Glossary On
Versions: 1 2 3 4 5 6 7 8 9 10 11 12 13 14 15 16 17 18 19 20 21 22 23 24 25 26 27 28 29 30 31 32 33 34 35 36 37 38 39 40 41 42 43 44 45 46 47 48 49 50
000
ASUS44 KMEG 240910
RWRTN
TENNESSEE HOURLY STATE WEATHER ROUNDUP
NATIONAL WEATHER SERVICE MEMPHIS TN
400 AM CDT SUN MAY 24 2015

TNZ002-004-019-021-049-052-054-088>092-241000-
WEST TENNESSEE

CITY           SKY/WX    TMP DP  RH WIND       PRES   REMARKS
MEMPHIS INTL   MOCLDY    72  58  61 SE9       30.10F
NWS MEMPHIS      N/A     70 N/A N/A MISG        N/A
JACKSON        MOCLDY    69  58  67 VRB6      30.15S
DYERSBURG      MOCLDY    68  48  49 SE8       30.13F
PARIS          CLEAR     63  55  77 SE6       30.17S
LEXINGTON      CLEAR     63  55  77 CALM      30.17S
$$

TNZ008-025-027-028-033-062-065-066-241000-
NORTH MIDDLE TENNESSEE

CITY           SKY/WX    TMP DP  RH WIND       PRES   REMARKS
NASHVILLE      PTCLDY    62  53  72 SE3       30.23S
CLARKSVILLE    CLEAR     61  56  83 SE7       30.20S
SMYRNA         CLEAR     56  56 100 CALM      30.25R
COOKEVILLE     CLEAR     52  50  93 CALM      30.27R
CROSSVILLE     PTCLDY    54  48  80 CALM      30.32R
$$

TNZ061-075-076-078-094-096-097-241000-
SOUTH MIDDLE TENNESSEE

CITY           SKY/WX    TMP DP  RH WIND       PRES   REMARKS
FAYETTEVILLE   CLEAR    N/A N/A N/A MISG      30.24S
TULLAHOMA      CLEAR     63  48  59 CALM      30.27R
WINCHESTER     CLEAR     66  48  52 S13       30.26S
MCMINNVILLE    CLEAR     61  48  63 E18       30.27R
COLUMBIA       CLEAR     57  55  94 CALM      30.20S
SHELBYVILLE    CLEAR     59  54  82 CALM      30.25S
$$

TNZ017-018-042-046-047-241000-
NORTHEAST TENNESSEE

CITY           SKY/WX    TMP DP  RH WIND       PRES   REMARKS
TRI CITIES     PTCLDY    51  48  89 CALM      30.34R
ELIZABETHTON   SUNNY     54  45  71 NE5       30.35S
$$

TNZ012-013-036-069-073-074-241000-
CENTRAL EAST TENNESSEE

CITY           SKY/WX    TMP DP  RH WIND       PRES   REMARKS
KNOXVILLE      PTCLDY    57  54  89 CALM      30.30R
OAK RIDGE      PTCLDY    56  53  90 CALM      30.32R
GATLINBURG     SUNNY     52  52 100 CALM      30.30R
MORRISTOWN     SUNNY     57  50  77 CALM      30.32R
$$

TNZ083-085-099-241000-
SOUTHEAST TENNESSEE

CITY           SKY/WX    TMP DP  RH WIND       PRES   REMARKS
CHATTANOOGA    CLEAR     57  52  83 CALM      30.30R
$$

SKY/WX REPORTED AS FAIR MEANS FEW OR NO CLOUDS BELOW
12 THOUSAND FEET.



USA.gov is the U.S. government's official web portal to all federal, state and local government web resources and services.